Weather History for Frankfort, MI

Change the Weather History Date:

Tuesday, March 4, 2014

  Actual Average (KTVC) Record (KTVC)
Temperature  
Mean Temperature 8 °F 26 °F  
Max Temperature 19 °F 35 °F 52 °F (1992)
Min Temperature -3 °F 18 °F -13 °F (1913)
Degree Days  
Heating Degree Days 57 39  
Month to date heating degree days 156  
Since 1 July heating degree days 5496  
Cooling Degree Days 0 0  
Month to date cooling degree days 0  
Year to date cooling degree days 0  
Moisture  
Dew Point 8 °F    
Average Humidity 80    
Maximum Humidity 89    
Minimum Humidity 57    
Precipitation  
Precipitation 0.00 in 0.06 in 0.99 in (1976)
Month to date precipitation 0.23  
Year to date precipitation 4.55  
Sea Level Pressure  
Sea Level Pressure 30.24 in    
Wind  
Wind Speed 5 mph (West)    
Max Wind Speed 9 mph    
Max Gust Speed 17 mph    
Visibility 6 miles    
Events Snow    
T = Trace of Precipitation, MM = Missing Value Source: NWS Daily Summary

Daily Weather History Graph

Daily Weather History Graph

Search for Another Location

Airport:

Trip Planner

Search our weather history database for the weather conditions in past years. The results will help you decide how hot, cold, wet, or windy it might be!

Date:

Astronomy

Mar. 04, 2014 Rise Set
Actual Time 7:17 AM EST 6:36 PM EST
Civil Twilight 6:47 AM EST 7:05 PM EST
Nautical Twilight 6:14 AM EST 7:39 PM EST
Astronomical Twilight 5:40 AM EST 8:13 PM EST
Moon 8:52 AM EST (3/4) 10:54 PM EST (3/4)
Length of Visible Light 12h 17m
Length of Day
11h 19m
Waxing Crescent, 14% of the Moon is Illuminated
Mar 4
Waxing Crescent
Mar 8
First Quarter
Mar 16
Full
Mar 23
Last Quarter
Mar 30
New

Hourly Weather History & Observations

Time (EST) Temp. Windchill Dew Point Humidity Pressure Visibility Wind Dir Wind Speed Gust Speed Precip Events Conditions
12:13 AM 17.4 °F 6.2 °F 8.2 °F 67% 30.32 in 10.0 mi WSW 9.2 mph 17.3 mph N/A   Overcast
12:33 AM 16.7 °F 7.2 °F 5.0 °F 60% 30.31 in 10.0 mi WSW 6.9 mph - N/A   Overcast
12:53 AM 16.7 °F 6.2 °F 4.1 °F 58% 30.30 in 10.0 mi West 8.1 mph - N/A   Overcast
1:13 AM 16.7 °F 7.2 °F 3.9 °F 57% 30.30 in 10.0 mi WSW 6.9 mph - N/A   Overcast
1:33 AM 16.5 °F 6.0 °F 4.3 °F 59% 30.30 in 10.0 mi WSW 8.1 mph - N/A   Overcast
1:53 AM 16.5 °F 9.4 °F 5.0 °F 61% 30.29 in 10.0 mi WSW 4.6 mph - N/A   Overcast
2:14 AM 16.5 °F 8.1 °F 5.4 °F 62% 30.29 in 10.0 mi West 5.8 mph - N/A   Overcast
2:34 AM 16.3 °F 6.7 °F 6.1 °F 64% 30.28 in 10.0 mi WSW 6.9 mph - N/A Snow Light Snow
2:54 AM 16.2 °F 7.6 °F 7.0 °F 67% 30.28 in 7.0 mi WSW 5.8 mph - N/A Snow Light Snow
3:14 AM 15.8 °F 8.6 °F 8.4 °F 73% 30.27 in 4.0 mi WSW 4.6 mph - N/A Snow Light Snow
3:34 AM 15.6 °F 5.9 °F 9.9 °F 78% 30.27 in 2.5 mi West 6.9 mph - N/A Snow Light Snow
3:54 AM 15.4 °F 6.8 °F 11.1 °F 83% 30.26 in 1.2 mi WSW 5.8 mph - N/A Snow Snow
4:14 AM 15.4 °F 8.1 °F 11.7 °F 85% 30.26 in 1.8 mi WSW 4.6 mph - N/A Snow Light Snow
4:34 AM 15.4 °F 6.8 °F 12.2 °F 87% 30.25 in 1.2 mi WSW 5.8 mph - N/A Snow Snow
4:54 AM 15.6 °F 5.9 °F 12.6 °F 88% 30.25 in 1.0 mi WSW 6.9 mph - N/A Snow Snow
5:15 AM 15.6 °F 8.3 °F 12.7 °F 88% 30.25 in 1.0 mi West 4.6 mph - N/A Snow Snow
5:35 AM 15.6 °F 10.0 °F 12.7 °F 88% 30.24 in 1.2 mi WSW 3.5 mph - N/A Snow Light Snow
5:55 AM 15.6 °F 10.0 °F 12.6 °F 88% 30.24 in 1.8 mi SW 3.5 mph - N/A Snow Light Snow
6:15 AM 15.8 °F 8.6 °F 12.6 °F 87% 30.23 in 1.5 mi SW 4.6 mph - N/A Snow Light Snow
6:35 AM 16.0 °F 8.8 °F 12.9 °F 88% 30.23 in 2.5 mi WSW 4.6 mph - N/A Snow Light Snow
6:55 AM 16.2 °F 9.0 °F 12.7 °F 86% 30.23 in 2.0 mi SW 4.6 mph - N/A Snow Light Snow
7:15 AM 15.8 °F 7.2 °F 12.2 °F 86% 30.23 in 3.0 mi SSW 5.8 mph - N/A Snow Light Snow
7:35 AM 15.8 °F 8.6 °F 12.4 °F 86% 30.23 in 1.2 mi SW 4.6 mph - N/A Snow Light Snow
7:55 AM 16.0 °F 7.4 °F 12.0 °F 84% 30.23 in 2.5 mi WSW 5.8 mph - N/A Snow Light Snow
8:15 AM 16.0 °F 10.4 °F 12.2 °F 85% 30.23 in 1.8 mi SW 3.5 mph - N/A Snow Light Snow
8:36 AM 16.2 °F 9.0 °F 13.1 °F 88% 30.23 in 1.0 mi SW 4.6 mph - N/A Snow Light Snow
8:56 AM 16.5 °F 6.9 °F 12.2 °F 83% 30.23 in 1.8 mi WSW 6.9 mph - N/A Snow Light Snow
9:16 AM 16.5 °F 6.9 °F 12.9 °F 86% 30.22 in 1.2 mi WSW 6.9 mph - N/A Snow Light Snow
9:36 AM 16.7 °F 8.3 °F 12.9 °F 85% 30.22 in 1.5 mi WSW 5.8 mph - N/A Snow Light Snow
9:51 AM 16.7 °F 7.2 °F 13.1 °F 86% 30.22 in 0.8 mi WSW 6.9 mph - N/A Snow Light Snow
10:11 AM 17.1 °F 8.7 °F 13.6 °F 86% 30.22 in 0.5 mi West 5.8 mph - N/A Snow Snow
10:31 AM 17.1 °F 11.7 °F 13.8 °F 87% 30.22 in 0.5 mi WSW 3.5 mph - N/A Snow Snow
10:51 AM 17.6 °F 9.3 °F 13.6 °F 84% 30.21 in 0.8 mi West 5.8 mph - N/A Snow Light Snow
11:11 AM 17.4 °F 9.1 °F 12.9 °F 83% 30.20 in 2.0 mi SW 5.8 mph - N/A Snow Light Snow
11:31 AM 18.1 °F 11.3 °F 13.1 °F 81% 30.20 in 1.0 mi West 4.6 mph - N/A Snow Light Snow
11:52 AM 19.0 °F 10.0 °F 13.1 °F 78% 30.20 in 1.5 mi WNW 6.9 mph - N/A Snow Light Snow
12:12 PM 18.7 °F 13.5 °F 12.9 °F 78% 30.20 in 1.0 mi WNW 3.5 mph - N/A Snow Light Snow
12:32 PM 19.2 °F 12.5 °F 12.6 °F 75% 30.21 in 1.5 mi West 4.6 mph - N/A Snow Light Snow
12:52 PM 18.5 °F 11.7 °F 11.5 °F 74% 30.20 in 3.0 mi West 4.6 mph - N/A Snow Light Snow
1:12 PM 18.5 °F 11.7 °F 12.0 °F 76% 30.20 in 2.5 mi West 4.6 mph - N/A Snow Light Snow
1:32 PM 18.5 °F 10.4 °F 12.2 °F 76% 30.20 in 1.8 mi West 5.8 mph - N/A Snow Light Snow
1:52 PM 18.7 °F 9.5 °F 12.2 °F 76% 30.19 in 2.5 mi WNW 6.9 mph - N/A Snow Light Snow
2:12 PM 19.4 °F 14.3 °F 12.7 °F 75% 30.19 in 0.8 mi WNW 3.5 mph - N/A Snow Light Snow
2:32 PM 18.7 °F 9.5 °F 12.6 °F 77% 30.19 in 4.0 mi WNW 6.9 mph - N/A Snow Light Snow
2:53 PM 18.3 °F 9.1 °F 12.2 °F 77% 30.19 in 2.5 mi WNW 6.9 mph - N/A Snow Light Snow
3:13 PM 18.5 °F 10.4 °F 12.7 °F 78% 30.20 in 7.0 mi WNW 5.8 mph - N/A Snow Light Snow
3:33 PM 18.1 °F 10.0 °F 12.6 °F 79% 30.20 in 3.0 mi WNW 5.8 mph - N/A Snow Light Snow
3:53 PM 18.3 °F 10.2 °F 12.4 °F 78% 30.20 in 10.0 mi WNW 5.8 mph - N/A Snow Light Snow
4:13 PM 18.1 °F 11.3 °F 12.0 °F 77% 30.21 in 10.0 mi West 4.6 mph - N/A   Overcast
4:33 PM 17.8 °F 12.5 °F 11.5 °F 76% 30.20 in 7.0 mi WNW 3.5 mph - N/A Snow Light Snow
4:53 PM 17.4 °F 12.1 °F 11.5 °F 78% 30.20 in 7.0 mi West 3.5 mph - N/A Snow Light Snow
5:13 PM 17.4 °F 12.1 °F 11.1 °F 76% 30.20 in 4.0 mi WNW 3.5 mph - N/A Snow Light Snow
5:33 PM 17.4 °F 10.4 °F 11.3 °F 77% 30.20 in 10.0 mi WSW 4.6 mph - N/A Snow Light Snow
5:54 PM 16.5 °F 11.0 °F 10.9 °F 79% 30.20 in 10.0 mi North 3.5 mph - N/A Snow Light Snow
6:14 PM 15.6 °F - 10.2 °F 79% 30.21 in 10.0 mi Calm Calm - N/A Snow Light Snow
6:34 PM 14.7 °F - 10.0 °F 82% 30.22 in 10.0 mi Calm Calm - N/A   Clear
6:54 PM 12.7 °F - 9.0 °F 85% 30.22 in 10.0 mi Calm Calm - N/A   Clear
7:14 PM 11.1 °F - 7.7 °F 86% 30.23 in 10.0 mi Calm Calm - N/A   Clear
7:34 PM 6.6 °F - 3.0 °F 85% 30.24 in 10.0 mi Calm Calm - N/A   Clear
7:54 PM 5.0 °F - 2.3 °F 89% 30.24 in 10.0 mi Calm Calm - N/A   Clear
8:14 PM 5.4 °F - 2.8 °F 89% 30.25 in 10.0 mi Calm Calm - N/A   Clear
8:34 PM 2.3 °F - -0.9 °F 86% 30.24 in 10.0 mi Calm Calm - N/A   Clear
8:54 PM 3.9 °F - 1.0 °F 88% 30.24 in 10.0 mi Calm Calm - N/A   Clear
9:15 PM 2.8 °F - -0.2 °F 87% 30.25 in 10.0 mi Calm Calm - N/A   Clear
9:35 PM 0.3 °F - -2.9 °F 86% 30.26 in 10.0 mi Calm Calm - N/A   Clear
9:55 PM 1.0 °F - -2.2 °F 86% 30.27 in 10.0 mi Calm Calm - N/A   Clear
10:15 PM -1.1 °F - -4.5 °F 85% 30.27 in 10.0 mi Calm Calm - N/A   Clear
10:35 PM -1.1 °F - -4.5 °F 85% 30.28 in 10.0 mi Calm Calm - N/A   Clear
10:55 PM -1.3 °F - -4.9 °F 85% 30.29 in 10.0 mi Calm Calm - N/A   Clear
11:15 PM -3.5 °F - -7.4 °F 83% 30.29 in 10.0 mi Calm Calm - N/A   Clear
11:35 PM -0.9 °F - -4.4 °F 85% 30.30 in 10.0 mi Calm Calm - N/A   Clear
11:55 PM -2.9 °F - -6.5 °F 85% 30.30 in 10.0 mi Calm Calm - N/A   Clear